Regional Weather Roundup
Issued by NWS

Home | Current Version | Previous Version | Text Only | Print | Product List | Glossary Off
Versions: 1 2 3 4 5 6 7 8 9 10 11 12 13 14 15 16 17 18 19 20 21 22 23 24 25 26 27 28 29 30 31 32 33 34 35 36 37 38 39 40 41 42 43 44 45 46 47 48 49 50

000
ASUS43 KMKX 011259
RWRWI

WISCONSIN REGIONAL WEATHER ROUNDUP
NATIONAL WEATHER SERVICE MILWAUKEE/SULLIVAN WI
700 AM CST SUN MAR 01 2015

NOTE: "FAIR" INDICATES FEW OR NO CLOUDS BELOW 12,000 FEET WITH NO
SIGNIFICANT WEATHER AND/OR OBSTRUCTIONS TO VISIBILITY.

WIZ001-002-006>008-014>016-023>028-011400-
NORTHWEST WISCONSIN

CITY           SKY/WX    TMP DP  RH WIND       PRES   REMARKS
SUPERIOR ARPT  FLURRIES  15   9  78 SW8       30.18S WCI   3
ASHLAND        CLOUDY    14   8  77 SW8       30.18F WCI   3
HAYWARD        LGT SNOW  13   8  81 SW9       30.15F VSB 1   WCI   1
SIREN          FLURRIES  16  12  82 SW10      30.18F WCI   4
CUMBERLAND     FLURRIES  14  10  85 S7        30.17F WCI   4
RICE LAKE      CLOUDY    13  10  85 S5        30.21F WCI   6
CHETEK         CLOUDY    13   9  85 S5        30.21F WCI   5
LADYSMITH      FLURRIES  11   7  84 S6        30.22F WCI   2
EAU CLAIRE     CLOUDY    13   8  81 SW8       30.24F WCI   2
MENOMONIE      CLOUDY    13   9  83 S3        30.24F
NEW RICHMOND   FLURRIES  15  11  85 SW8       30.21F WCI   4
OSCEOLA        CLOUDY    16  12  86 S6        30.24F WCI   7
$$

WIZ003>005-009-010-017-018-011400-
NORTH CENTRAL WISCONSIN

CITY           SKY/WX    TMP DP  RH WIND       PRES   REMARKS
MANITOWISH WTR LGT SNOW   9   5  82 SW7       30.13F WCI  -2
ARBOR VITAE    FLURRIES  10   5  79 SW7       30.15F WCI  -1
WOODRUFF       FLURRIES  10   5  79 SW7       30.15F WCI  -1
RHINELANDER    CLOUDY     8   1  73 SW10      30.17F WCI  -6
EAGLE RIVER    FLURRIES   8   1  72 SW7       30.14F WCI  -3
LAND O LAKES   LGT SNOW   8   2  78 CALM      30.14F
PHILLIPS       LGT SNOW  10   6  84 SW8       30.17F WCI  -3
TOMAHAWK       FLURRIES   8   3  79 CALM      30.20F
MEDFORD        LGT SNOW   9   5  84 S7        30.20F WCI  -3
MERRILL        FLURRIES   9   3  77 SW5       30.23S WCI   1
$$

WIZ029-030-035-036-043>047-011400-
CENTRAL WISCONSIN

CITY           SKY/WX    TMP DP  RH WIND       PRES   REMARKS
WAUSAU         CLOUDY     9   4  80 SW8       30.23F HAZE    WCI  -3
MOSINEE        CLOUDY     9   5  85 S6        30.25F WCI  -1
MARSHFIELD     CLOUDY    10   5  80 SW7       30.24F HAZE    WCI  -1
STEVENS POINT  CLOUDY     8   4  82 SW5       30.28F WCI   0
WAUPACA        PTCLDY     9   4  80 CALM      30.30F
WAUTOMA        NOT AVBL
WISC RAPIDS    MOCLDY     8   3  80 S5        30.29F WCI   0
CAMP DOUGLAS   MOCLDY     5   5 100 SE3       30.30F
$$

WIZ011>013-019>022-031-037>040-048>050-011400-
NORTHEAST WISCONSIN

CITY           SKY/WX    TMP DP  RH WIND       PRES   REMARKS
ANTIGO         CLOUDY     6   2  83 SW9       30.21F WCI  -8
SHAWANO        PTCLDY    11   4  71 SW3       30.30F
OCONTO         PTCLDY     9   3  78 SW5       30.32F WCI   0
STURGEON BAY   PTCLDY    10   3  72 SW8       30.32F WCI  -1
GREEN BAY      MOCLDY     9   6  88 S3        30.31F FOG
MANITOWOC      NOT AVBL
APPLETON       MOCLDY     9   3  78 SW6       30.30F WCI  -1
CLINTONVILLE   PTCLDY    10   5  79 SW3       30.30F
OSHKOSH        MOCLDY     9   6  88 S3        30.31F FOG
$$

WIZ032>034-041-042-053>061-011400-
SOUTHWEST WISCONSIN

CITY           SKY/WX    TMP DP  RH WIND       PRES   REMARKS
LA CROSSE      CLOUDY    12   7  80 S7        30.31F WCI   1
SPARTA         PTCLDY     2  -1  85 CALM      30.31F
VIROQUA        MOCLDY     8   7  92 S5        30.27F WCI   0
BOSCOBEL       CLOUDY     7   2  80 CALM      30.35F
PRAIRIE DU CHI MIX PCPN  10   5  81 CALM      30.35F
PLATTEVILLE    CLOUDY    11   9  89 S3        30.32F VSB<1/4
$$

WIZ056-057-062-063-064-067-068-011400-
SOUTH CENTRAL WISCONSIN

CITY           SKY/WX    TMP DP  RH WIND       PRES   REMARKS
REEDSBURG      MOCLDY    10   8  89 SW6       30.32S WCI   1
BARABOO/DELLS  MOCLDY     9   6  89 SW3       30.31S
LONE ROCK      MOCLDY     5   2  87 CALM      30.35S FOG
MINERAL POINT  LGT SNOW  14  10  85 CALM      30.30F VSB 3/4
MADISON        FLURRIES  15  10  80 SW3       30.32F
MIDDLETON      CLOUDY    16  11  82 SW3       30.33F
WATERTOWN      LGT SNOW  12  11  95 CALM      30.33F
MONROE         CLOUDY    14  12  92 W7        30.31F FOG     WCI   4
JANESVILLE     LGT SNOW  16  12  86 CALM      30.35
$$

WIZ051-052-058>065-066-070>072-011400-
SOUTHEAST WISCONSIN

CITY           SKY/WX    TMP DP  RH WIND       PRES   REMARKS
MILWAUKEE      CLOUDY    14  10  84 S3        30.35F FOG
WAUKESHA       MOCLDY     7   5  92 S5        30.34F FOG     WCI  -2
MILWAUKEE/TIMM PTCLDY    10   9  92 CALM      30.35F
RACINE         CLOUDY    14  10  84 SW7       30.37F FOG     WCI   4
BURLINGTON     LGT SNOW   8   6  89 CALM      30.34F
KENOSHA        CLOUDY    14  12  92 SW6       30.35F FOG     WCI   5
FOND DU LAC    MOCLDY    10   6  84 S3        30.32F FOG
SHEBOYGAN      PTCLDY    11   8  88 S5        30.32F WCI   3
WEST BEND      MOCLDY    14  10  85 W3        30.31F
JUNEAU         MOCLDY    11   8  91 S3        30.33F
$$

LSZ147-162-011400-
LAKE SUPERIOR

STATION/POSITION TIME  TEMP    WIND        PRES    WAVE
                       AIR SEA DIR/SP/G            HT/PER
                 (UTC) (F)     (DEG/KT/KT) (MB)    (FT/S)
DEVILS ISLAND    1200   16     230/ 15/ 19 1022.9F
PORT WING        1200   15     210/  7/ 13 1022.0F
SAXON HARBOR     1200   16     200/ 10/ 16 1022.0F
$$

LMZ867-665-643>646-011400-
LAKE MICHIGAN

STATION/POSITION TIME  TEMP    WIND        PRES    WAVE
                       AIR SEA DIR/SP/G            HT/PER
                 (UTC) (F)     (DEG/KT/KT) (MB)    (FT/S)
NORTHPORT PIER   1205   13     220/  4/ 12 1026.4F
KEWAUNEE LAKESHO 1200   12     230/  3/  5 1026.6F
SHEBOYGAN LAKESH 1200   15     250/  3/  5 1029.5F
PORT WASHINGTON  1240   14     260/  3/  3 1028.1F
MILWAUKEE LAKESH 1200   16     230/  6/  7   N/A
KENOSHA   LAKESH 1200   16     230/  4/  6 1028.4F
$$

TC  - TEMPERATURE IN CELSIUS
VSB - VISIBILITY IN STATUTE MILES
WCI - WIND CHILL INDEX
HX  - HEAT INDEX



USA.gov is the U.S. government's official web portal to all federal, state and local government web resources and services.